logo
Search for airport 
image banner adimage banner adimage banner ad
image banner ad

EVLA - Liepaja

Located in Liepaja, Latvia

ICAO - EVLA, IATA - LPX

Data provided by Airmate  

General information

Coordinates: N56°31'3" E21°5'49"
Elevation is 18 feet MSL.
Magnetic variation is 6° East
View others Airports in Liepaja District

Operational data

Special qualification required
Current time UTC:
Current local time:
Weather
METAR: EVLA 110520Z AUTO 11012KT 9999 -SN FEW010/// OVC033/// M02/M03 Q1002
TAF: TAF EVLA 110524Z 1106/1206 11010KT 9999 BKN012 TEMPO 1106/1124 3000 -SN -SNRA BKN007 PROB40 TEMPO 1106/1124 -FZDZ BECMG 1200/1202 VRB02KT BKN015 TEMPO 1200/1206 4000 BR
View NOTAMs / SUP AIP / TFR affecting this airport [VIEW]
Communications frequencies: [VIEW]

Runways:

RWY identifierQFULength (ft)Width (ft)SurfaceLDA (ft)
066568131UNK
246568131UNK

Airport contact information

Address: Liepaja Latvia

Satellite view of EVLA